Wetterdaten: aktuell Montag, 23.09.2019 11:25
Datum Zeit Temp. A. Temp. A. min Feuchte A. Luftdruck Regen Wind Richtung Richtung Sonnenschein Solar Taupunkt Windchill Windben
23.09.2019 11:25 14,2 C 14,2 C 95 % 1023,7 hPa 0,0 l/m 2,2 km/h (1 Bft) S 183 0 min 0 W/m 13,4 C 14,2 C 6,4 km/h (2 Bft)
23.09.2019 11:20 14,3 C 14,2 C 95 % 1023,7 hPa 0,0 l/m 1,3 km/h (1 Bft) S-SO 167 0 min 0 W/m 13,5 C 14,3 C 4,8 km/h (1 Bft)
23.09.2019 11:15 14,3 C 14,2 C 95 % 1023,7 hPa 0,0 l/m 2,6 km/h (1 Bft) S-SO 157 0 min 0 W/m 13,5 C 14,3 C 4,8 km/h (1 Bft)
23.09.2019 11:10 14,3 C 14,2 C 95 % 1023,6 hPa 0,0 l/m 2,9 km/h (1 Bft) S 190 0 min 0 W/m 13,5 C 14,3 C 6,4 km/h (2 Bft)
23.09.2019 11:05 14,2 C 14,2 C 95 % 1023,6 hPa 0,0 l/m 2,0 km/h (1 Bft) S-SW 193 0 min 0 W/m 13,4 C 14,2 C 6,4 km/h (2 Bft)
23.09.2019 11:00 14,2 C 14,2 C 95 % 1023,6 hPa 0,0 l/m 3,3 km/h (1 Bft) S 173 0 min 0 W/m 13,4 C 14,2 C 8,0 km/h (2 Bft)
23.09.2019 10:55 14,2 C 14,2 C 95 % 1023,6 hPa 0,2 l/m 3,0 km/h (1 Bft) S-SO 157 0 min 0 W/m 13,4 C 14,2 C 9,7 km/h (2 Bft)
23.09.2019 10:50 14,2 C 14,2 C 95 % 1023,5 hPa 0,0 l/m 3,1 km/h (1 Bft) SW 217 0 min 0 W/m 13,4 C 14,2 C 6,4 km/h (2 Bft)
23.09.2019 10:45 14,2 C 14,2 C 95 % 1023,5 hPa 0,0 l/m 4,1 km/h (1 Bft) S-SW 205 0 min 0 W/m 13,4 C 14,2 C 6,4 km/h (2 Bft)
23.09.2019 10:40 14,2 C 14,1 C 95 % 1023,6 hPa 0,0 l/m 2,1 km/h (1 Bft) S-SW 198 0 min 0 W/m 13,4 C 14,2 C 6,4 km/h (2 Bft)
23.09.2019 10:35 14,2 C 14,1 C 95 % 1023,5 hPa 0,0 l/m 2,9 km/h (1 Bft) S 190 0 min 0 W/m 13,4 C 14,2 C 6,4 km/h (2 Bft)
23.09.2019 10:30 14,1 C 14,1 C 95 % 1023,4 hPa 0,2 l/m 1,6 km/h (1 Bft) S 190 0 min 0 W/m 13,3 C 14,1 C 4,8 km/h (1 Bft)
23.09.2019 10:25 14,1 C 14,1 C 95 % 1023,5 hPa 0,0 l/m 2,2 km/h (1 Bft) S 189 0 min 0 W/m 13,3 C 14,1 C 6,4 km/h (2 Bft)
23.09.2019 10:20 14,1 C 14,1 C 94 % 1023,4 hPa 0,2 l/m 2,0 km/h (1 Bft) S-SW 195 0 min 0 W/m 13,1 C 14,1 C 4,8 km/h (1 Bft)
23.09.2019 10:15 14,1 C 14,1 C 95 % 1023,4 hPa 0,0 l/m 3,4 km/h (1 Bft) S-SW 192 0 min 0 W/m 13,3 C 14,1 C 4,8 km/h (1 Bft)
23.09.2019 10:10 14,1 C 14,1 C 94 % 1023,4 hPa 0,0 l/m 1,4 km/h (1 Bft) S 189 0 min 0 W/m 13,1 C 14,1 C 4,8 km/h (1 Bft)
23.09.2019 10:05 14,1 C 14,1 C 94 % 1023,4 hPa 0,2 l/m 1,5 km/h (1 Bft) S-SW 198 0 min 0 W/m 13,1 C 14,1 C 3,2 km/h (1 Bft)
23.09.2019 10:00 14,1 C 14,1 C 94 % 1023,3 hPa 0,0 l/m 2,3 km/h (1 Bft) S-SW 202 0 min 0 W/m 13,1 C 14,1 C 6,4 km/h (2 Bft)
23.09.2019 09:55 14,1 C 14,1 C 94 % 1023,3 hPa 0,0 l/m 3,2 km/h (1 Bft) S-SO 163 0 min 0 W/m 13,1 C 14,1 C 6,4 km/h (2 Bft)
23.09.2019 09:50 14,1 C 14,1 C 94 % 1023,3 hPa 0,2 l/m 3,4 km/h (1 Bft) S 191 0 min 0 W/m 13,1 C 14,1 C 6,4 km/h (2 Bft)
23.09.2019 09:45 14,1 C 14,0 C 94 % 1023,2 hPa 0,0 l/m 2,4 km/h (1 Bft) S-SW 201 0 min 0 W/m 13,1 C 14,1 C 6,4 km/h (2 Bft)
23.09.2019 09:40 14,0 C 14,0 C 94 % 1023,2 hPa 0,0 l/m 1,1 km/h (1 Bft) S-SW 195 0 min 0 W/m 13,0 C 14,0 C 3,2 km/h (1 Bft)
23.09.2019 09:35 14,1 C 14,0 C 94 % 1023,1 hPa 0,2 l/m 1,8 km/h (1 Bft) S-SW 196 0 min 0 W/m 13,1 C 14,1 C 4,8 km/h (1 Bft)
23.09.2019 09:30 14,0 C 14,0 C 94 % 1023,1 hPa 0,0 l/m 2,8 km/h (1 Bft) S-SW 200 0 min 0 W/m 13,0 C 14,0 C 6,4 km/h (2 Bft)
23.09.2019 09:25 14,0 C 13,9 C 94 % 1023,1 hPa 0,0 l/m 3,5 km/h (1 Bft) S-SW 194 0 min 0 W/m 13,0 C 14,0 C 6,4 km/h (2 Bft)
23.09.2019 09:20 14,0 C 13,9 C 94 % 1023,1 hPa 0,2 l/m 3,5 km/h (1 Bft) S-SW 193 0 min 0 W/m 13,0 C 14,0 C 6,4 km/h (2 Bft)
23.09.2019 09:15 13,9 C 13,9 C 94 % 1023,0 hPa 0,0 l/m 4,0 km/h (1 Bft) S 190 0 min 0 W/m 12,9 C 13,9 C 6,4 km/h (2 Bft)
23.09.2019 09:10 13,9 C 13,9 C 94 % 1023,1 hPa 0,2 l/m 4,4 km/h (1 Bft) S-SW 194 0 min 0 W/m 12,9 C 13,9 C 8,0 km/h (2 Bft)
23.09.2019 09:05 13,9 C 13,9 C 94 % 1023,0 hPa 0,0 l/m 3,9 km/h (1 Bft) S 191 0 min 0 W/m 12,9 C 13,9 C 6,4 km/h (2 Bft)
23.09.2019 09:00 13,9 C 13,9 C 94 % 1023,0 hPa 0,0 l/m 4,4 km/h (1 Bft) S-SW 192 0 min 0 W/m 12,9 C 13,9 C 9,7 km/h (2 Bft)
23.09.2019 08:55 13,9 C 13,9 C 94 % 1022,9 hPa 0,0 l/m 4,5 km/h (1 Bft) S 191 0 min 0 W/m 12,9 C 13,9 C 8,0 km/h (2 Bft)
23.09.2019 08:50 13,9 C 13,9 C 94 % 1022,8 hPa 0,2 l/m 3,0 km/h (1 Bft) S-SW 192 0 min 0 W/m 12,9 C 13,9 C 6,4 km/h (2 Bft)
23.09.2019 08:45 13,9 C 13,9 C 94 % 1022,7 hPa 0,2 l/m 2,2 km/h (1 Bft) S-SW 200 0 min 0 W/m 12,9 C 13,9 C 4,8 km/h (1 Bft)
23.09.2019 08:40 13,9 C 13,9 C 94 % 1022,7 hPa 0,2 l/m 2,2 km/h (1 Bft) S-SW 213 0 min 0 W/m 12,9 C 13,9 C 4,8 km/h (1 Bft)
23.09.2019 08:35 13,9 C 13,9 C 94 % 1022,6 hPa 0,4 l/m 1,5 km/h (1 Bft) S-SW 197 0 min 0 W/m 12,9 C 13,9 C 4,8 km/h (1 Bft)
23.09.2019 08:30 13,9 C 13,8 C 94 % 1022,6 hPa 0,4 l/m 1,1 km/h (1 Bft) S-SW 198 0 min 0 W/m 12,9 C 13,9 C 3,2 km/h (1 Bft)
23.09.2019 08:25 13,8 C 13,8 C 94 % 1022,6 hPa 0,2 l/m 0,0 km/h (0 Bft) S-SW 199 0 min 0 W/m 12,9 C 13,8 C 0,0 km/h (0 Bft)
23.09.2019 08:20 13,8 C 13,8 C 94 % 1022,5 hPa 0,2 l/m 0,0 km/h (0 Bft) S-SW 199 0 min 0 W/m 12,9 C 13,8 C 0,0 km/h (0 Bft)
23.09.2019 08:15 13,9 C 13,8 C 94 % 1022,3 hPa 0,0 l/m 0,0 km/h (0 Bft) S-SW 199 0 min 0 W/m 12,9 C 13,9 C 0,0 km/h (0 Bft)
23.09.2019 08:10 13,9 C 13,8 C 94 % 1022,4 hPa 0,0 l/m 1,6 km/h (1 Bft) S-SW 199 0 min 0 W/m 12,9 C 13,9 C 4,8 km/h (1 Bft)
23.09.2019 08:05 13,9 C 13,9 C 93 % 1022,3 hPa 0,0 l/m 1,5 km/h (1 Bft) S-SW 199 0 min 0 W/m 12,8 C 13,9 C 4,8 km/h (1 Bft)
23.09.2019 08:00 13,9 C 13,9 C 93 % 1022,3 hPa 0,2 l/m 3,9 km/h (1 Bft) S-SW 211 0 min 0 W/m 12,8 C 13,9 C 6,4 km/h (2 Bft)
23.09.2019 07:55 13,9 C 13,9 C 94 % 1022,3 hPa 0,2 l/m 3,3 km/h (1 Bft) SW 217 0 min 0 W/m 12,9 C 13,9 C 12,9 km/h (3 Bft)
23.09.2019 07:50 14,0 C 14,0 C 94 % 1022,3 hPa 0,2 l/m 2,7 km/h (1 Bft) SW 220 0 min 0 W/m 13,0 C 14,0 C 9,7 km/h (2 Bft)
23.09.2019 07:45 14,1 C 14,0 C 94 % 1022,3 hPa 0,2 l/m 2,1 km/h (1 Bft) SW 226 0 min 0 W/m 13,1 C 14,1 C 4,8 km/h (1 Bft)
23.09.2019 07:40 14,1 C 14,1 C 94 % 1022,2 hPa 0,2 l/m 3,4 km/h (1 Bft) S-SW 206 0 min 0 W/m 13,1 C 14,1 C 6,4 km/h (2 Bft)
23.09.2019 07:35 14,1 C 14,1 C 93 % 1022,2 hPa 0,0 l/m 4,5 km/h (1 Bft) S-SW 200 0 min 0 W/m 13,0 C 14,1 C 8,0 km/h (2 Bft)
23.09.2019 07:30 14,1 C 14,1 C 93 % 1022,1 hPa 0,2 l/m 3,3 km/h (1 Bft) SW 215 0 min 0 W/m 13,0 C 14,1 C 6,4 km/h (2 Bft)
23.09.2019 07:25 14,1 C 14,1 C 93 % 1022,1 hPa 0,0 l/m 3,9 km/h (1 Bft) W-SW 239 0 min 0 W/m 13,0 C 14,1 C 8,0 km/h (2 Bft)
23.09.2019 07:20 14,1 C 14,1 C 93 % 1022,0 hPa 0,2 l/m 4,2 km/h (1 Bft) S 169 0 min 0 W/m 13,0 C 14,1 C 8,0 km/h (2 Bft)
23.09.2019 07:15 14,1 C 14,1 C 93 % 1022,0 hPa 0,0 l/m 3,4 km/h (1 Bft) S-SW 194 0 min 0 W/m 13,0 C 14,1 C 6,4 km/h (2 Bft)
23.09.2019 07:10 14,1 C 14,1 C 93 % 1021,9 hPa 0,2 l/m 3,9 km/h (1 Bft) S 186 0 min 0 W/m 13,0 C 14,1 C 6,4 km/h (2 Bft)
23.09.2019 07:05 14,1 C 14,1 C 93 % 1021,8 hPa 0,0 l/m 2,7 km/h (1 Bft) SW 219 0 min 0 W/m 13,0 C 14,1 C 6,4 km/h (2 Bft)
23.09.2019 07:00 14,1 C 14,1 C 93 % 1021,8 hPa 0,2 l/m 3,1 km/h (1 Bft) S-SW 194 0 min 0 W/m 13,0 C 14,1 C 6,4 km/h (2 Bft)
23.09.2019 06:55 14,1 C 14,1 C 93 % 1021,8 hPa 0,2 l/m 3,4 km/h (1 Bft) S-SW 195 0 min 0 W/m 13,0 C 14,1 C 6,4 km/h (2 Bft)
23.09.2019 06:50 14,1 C 14,1 C 93 % 1021,7 hPa 0,0 l/m 3,0 km/h (1 Bft) S-SW 193 0 min 0 W/m 13,0 C 14,1 C 4,8 km/h (1 Bft)
23.09.2019 06:45 14,1 C 14,1 C 93 % 1021,7 hPa 0,2 l/m 2,9 km/h (1 Bft) S-SW 197 0 min 0 W/m 13,0 C 14,1 C 6,4 km/h (2 Bft)
23.09.2019 06:40 14,1 C 14,1 C 93 % 1021,8 hPa 0,2 l/m 3,6 km/h (1 Bft) S-SW 206 0 min 0 W/m 13,0 C 14,1 C 6,4 km/h (2 Bft)
23.09.2019 06:35 14,1 C 14,1 C 93 % 1021,7 hPa 0,0 l/m 4,3 km/h (1 Bft) S-SW 213 0 min 0 W/m 13,0 C 14,1 C 8,0 km/h (2 Bft)
23.09.2019 06:30 14,1 C 14,1 C 93 % 1021,6 hPa 0,2 l/m 4,5 km/h (1 Bft) S-SW 212 0 min 0 W/m 13,0 C 14,1 C 6,4 km/h (2 Bft)
23.09.2019 06:25 14,1 C 14,1 C 93 % 1021,6 hPa 0,0 l/m 4,5 km/h (1 Bft) S-SW 213 0 min 0 W/m 13,0 C 14,1 C 6,4 km/h (2 Bft)
23.09.2019 06:20 14,1 C 14,1 C 92 % 1021,6 hPa 0,2 l/m 4,9 km/h (1 Bft) S-SW 211 0 min 0 W/m 12,8 C 14,1 C 11,3 km/h (2 Bft)
23.09.2019 06:15 14,2 C 14,2 C 92 % 1021,5 hPa 0,2 l/m 5,3 km/h (1 Bft) S-SW 198 0 min 0 W/m 12,9 C 14,2 C 9,7 km/h (2 Bft)
23.09.2019 06:10 14,2 C 14,2 C 92 % 1021,5 hPa 0,2 l/m 4,6 km/h (1 Bft) S-SW 200 0 min 0 W/m 12,9 C 14,2 C 11,3 km/h (2 Bft)
23.09.2019 06:05 14,2 C 14,2 C 92 % 1021,3 hPa 0,2 l/m 6,1 km/h (2 Bft) SW 222 0 min 0 W/m 12,9 C 14,2 C 19,3 km/h (3 Bft)
23.09.2019 06:00 14,3 C 14,3 C 92 % 1021,3 hPa 0,4 l/m 3,4 km/h (1 Bft) W 264 0 min 0 W/m 13,0 C 14,3 C 9,7 km/h (2 Bft)
23.09.2019 05:55 14,5 C 14,5 C 92 % 1021,2 hPa 0,2 l/m 5,1 km/h (1 Bft) S 186 0 min 0 W/m 13,2 C 14,5 C 17,7 km/h (3 Bft)
23.09.2019 05:50 14,7 C 14,7 C 92 % 1021,2 hPa 0,6 l/m 3,7 km/h (1 Bft) SW 223 0 min 0 W/m 13,4 C 14,7 C 9,7 km/h (2 Bft)
23.09.2019 05:45 14,8 C 14,8 C 92 % 1021,2 hPa 0,4 l/m 3,2 km/h (1 Bft) S-SW 203 0 min 0 W/m 13,5 C 14,8 C 6,4 km/h (2 Bft)
23.09.2019 05:40 14,8 C 14,8 C 92 % 1021,1 hPa 0,4 l/m 2,9 km/h (1 Bft) S-SW 207 0 min 0 W/m 13,5 C 14,8 C 6,4 km/h (2 Bft)
23.09.2019 05:35 14,9 C 14,9 C 92 % 1021,0 hPa 0,6 l/m 4,9 km/h (1 Bft) S-SW 212 0 min 0 W/m 13,6 C 14,9 C 11,3 km/h (2 Bft)
23.09.2019 05:30 14,9 C 14,9 C 92 % 1021,1 hPa 0,6 l/m 5,0 km/h (1 Bft) S-SW 212 0 min 0 W/m 13,6 C 14,9 C 9,7 km/h (2 Bft)
23.09.2019 05:25 14,9 C 14,9 C 92 % 1021,0 hPa 0,2 l/m 6,2 km/h (2 Bft) S-SW 198 0 min 0 W/m 13,6 C 14,9 C 11,3 km/h (2 Bft)
23.09.2019 05:20 14,9 C 14,9 C 92 % 1020,9 hPa 0,2 l/m 4,4 km/h (1 Bft) S-SW 198 0 min 0 W/m 13,6 C 14,9 C 8,0 km/h (2 Bft)
23.09.2019 05:15 14,9 C 14,9 C 92 % 1020,8 hPa 0,0 l/m 4,9 km/h (1 Bft) SW 221 0 min 0 W/m 13,6 C 14,9 C 9,7 km/h (2 Bft)
23.09.2019 05:10 15,0 C 14,9 C 92 % 1020,7 hPa 0,0 l/m 6,5 km/h (2 Bft) S-SW 198 0 min 0 W/m 13,7 C 15,0 C 12,9 km/h (3 Bft)
23.09.2019 05:05 15,0 C 15,0 C 91 % 1020,5 hPa 0,2 l/m 6,2 km/h (2 Bft) S-SW 212 0 min 0 W/m 13,5 C 15,0 C 12,9 km/h (3 Bft)
23.09.2019 05:00 15,0 C 15,0 C 91 % 1020,4 hPa 0,0 l/m 3,9 km/h (1 Bft) NW 319 0 min 0 W/m 13,5 C 15,0 C 11,3 km/h (2 Bft)
23.09.2019 04:55 15,1 C 15,1 C 91 % 1020,4 hPa 0,2 l/m 5,1 km/h (1 Bft) S-SW 197 0 min 0 W/m 13,6 C 15,1 C 19,3 km/h (3 Bft)
23.09.2019 04:50 15,1 C 15,1 C 91 % 1020,3 hPa 0,2 l/m 6,6 km/h (2 Bft) W 267 0 min 0 W/m 13,6 C 15,1 C 20,9 km/h (4 Bft)
23.09.2019 04:45 15,2 C 15,2 C 90 % 1020,2 hPa 0,2 l/m 7,7 km/h (2 Bft) W 280 0 min 0 W/m 13,6 C 15,2 C 22,5 km/h (4 Bft)
23.09.2019 04:40 15,4 C 15,4 C 90 % 1020,2 hPa 0,4 l/m 6,9 km/h (2 Bft) W 267 0 min 0 W/m 13,8 C 15,4 C 22,5 km/h (4 Bft)
23.09.2019 04:35 15,5 C 15,5 C 90 % 1020,1 hPa 0,6 l/m 4,9 km/h (1 Bft) S-SW 211 0 min 0 W/m 13,9 C 15,5 C 11,3 km/h (2 Bft)
23.09.2019 04:30 15,6 C 15,6 C 90 % 1020,1 hPa 0,4 l/m 4,6 km/h (1 Bft) S-SW 194 0 min 0 W/m 14,0 C 15,6 C 12,9 km/h (3 Bft)
23.09.2019 04:25 15,7 C 15,7 C 90 % 1020,0 hPa 0,0 l/m 4,0 km/h (1 Bft) S-SW 208 0 min 0 W/m 14,1 C 15,7 C 12,9 km/h (3 Bft)
23.09.2019 04:20 15,8 C 15,8 C 90 % 1019,9 hPa 0,2 l/m 4,3 km/h (1 Bft) S-SW 207 0 min 0 W/m 14,2 C 15,8 C 12,9 km/h (3 Bft)
23.09.2019 04:15 16,0 C 16,0 C 89 % 1019,8 hPa 0,2 l/m 4,9 km/h (1 Bft) S 188 0 min 0 W/m 14,2 C 16,0 C 12,9 km/h (3 Bft)
23.09.2019 04:10 16,1 C 16,1 C 89 % 1019,7 hPa 0,2 l/m 6,8 km/h (2 Bft) S-SW 207 0 min 0 W/m 14,3 C 16,1 C 19,3 km/h (3 Bft)
23.09.2019 04:05 16,3 C 16,3 C 89 % 1019,7 hPa 0,2 l/m 3,2 km/h (1 Bft) SW 221 0 min 0 W/m 14,5 C 16,3 C 8,0 km/h (2 Bft)
23.09.2019 04:00 16,4 C 16,4 C 89 % 1019,6 hPa 0,2 l/m 4,1 km/h (1 Bft) SW 214 0 min 0 W/m 14,6 C 16,4 C 9,7 km/h (2 Bft)
23.09.2019 03:55 16,4 C 16,4 C 88 % 1019,6 hPa 0,2 l/m 4,4 km/h (1 Bft) S-SW 195 0 min 0 W/m 14,4 C 16,4 C 8,0 km/h (2 Bft)
23.09.2019 03:50 16,5 C 16,5 C 88 % 1019,6 hPa 0,2 l/m 5,6 km/h (1 Bft) S-SW 194 0 min 0 W/m 14,5 C 16,5 C 9,7 km/h (2 Bft)
23.09.2019 03:45 16,6 C 16,6 C 88 % 1019,5 hPa 0,2 l/m 6,1 km/h (2 Bft) SW 229 0 min 0 W/m 14,6 C 16,6 C 9,7 km/h (2 Bft)
23.09.2019 03:40 16,6 C 16,5 C 88 % 1019,5 hPa 0,0 l/m 7,5 km/h (2 Bft) S 182 0 min 0 W/m 14,6 C 16,6 C 12,9 km/h (3 Bft)
23.09.2019 03:35 16,5 C 16,3 C 88 % 1019,4 hPa 0,0 l/m 7,3 km/h (2 Bft) S 184 0 min 0 W/m 14,5 C 16,5 C 12,9 km/h (3 Bft)
23.09.2019 03:30 16,3 C 16,2 C 88 % 1019,3 hPa 0,0 l/m 6,2 km/h (2 Bft) SW 229 0 min 0 W/m 14,3 C 16,3 C 19,3 km/h (3 Bft)
23.09.2019 03:25 16,2 C 15,9 C 89 % 1019,2 hPa 0,0 l/m 6,7 km/h (2 Bft) S-SW 209 0 min 0 W/m 14,4 C 16,2 C 17,7 km/h (3 Bft)
23.09.2019 03:20 15,9 C 15,6 C 89 % 1019,2 hPa 0,0 l/m 7,2 km/h (2 Bft) S-SW 197 0 min 0 W/m 14,1 C 15,9 C 24,1 km/h (4 Bft)
23.09.2019 03:15 15,6 C 15,1 C 89 % 1019,2 hPa 0,0 l/m 7,0 km/h (2 Bft) SW 225 0 min 0 W/m 13,8 C 15,6 C 12,9 km/h (3 Bft)
23.09.2019 03:10 15,1 C 14,3 C 89 % 1019,1 hPa 0,0 l/m 8,3 km/h (2 Bft) SW 227 0 min 0 W/m 13,3 C 15,1 C 16,1 km/h (3 Bft)
23.09.2019 03:05 14,3 C 13,9 C 87 % 1019,0 hPa 0,0 l/m 7,1 km/h (2 Bft) SW 217 0 min 0 W/m 12,2 C 14,3 C 16,1 km/h (3 Bft)
23.09.2019 03:00 13,9 C 13,8 C 84 % 1018,9 hPa 0,0 l/m 4,0 km/h (1 Bft) S-SW 201 0 min 0 W/m 11,2 C 13,9 C 8,0 km/h (2 Bft)
23.09.2019 02:55 13,8 C 13,8 C 83 % 1018,9 hPa 0,0 l/m 2,4 km/h (1 Bft) S-SW 201 0 min 0 W/m 11,0 C 13,8 C 4,8 km/h (1 Bft)
23.09.2019 02:50 13,8 C 13,7 C 83 % 1018,9 hPa 0,0 l/m 1,2 km/h (1 Bft) S-SW 202 0 min 0 W/m 11,0 C 13,8 C 4,8 km/h (1 Bft)
23.09.2019 02:45 13,7 C 13,7 C 83 % 1018,8 hPa 0,0 l/m 0,0 km/h (0 Bft) W 277 0 min 0 W/m 10,9 C 13,7 C 1,6 km/h (1 Bft)
23.09.2019 02:40 13,7 C 13,7 C 83 % 1018,8 hPa 0,0 l/m 0,8 km/h (0 Bft) W 277 0 min 0 W/m 10,9 C 13,7 C 3,2 km/h (1 Bft)
23.09.2019 02:35 13,7 C 13,7 C 83 % 1018,7 hPa 0,0 l/m 0,4 km/h (0 Bft) W 277 0 min 0 W/m 10,9 C 13,7 C 1,6 km/h (1 Bft)
23.09.2019 02:30 13,7 C 13,6 C 83 % 1018,6 hPa 0,0 l/m 0,3 km/h (0 Bft) W 277 0 min 0 W/m 10,9 C 13,7 C 1,6 km/h (1 Bft)
23.09.2019 02:25 13,6 C 13,6 C 83 % 1018,5 hPa 0,0 l/m 0,2 km/h (0 Bft) W 277 0 min 0 W/m 10,8 C 13,6 C 1,6 km/h (1 Bft)
23.09.2019 02:20 13,6 C 13,6 C 83 % 1018,5 hPa 0,0 l/m 1,0 km/h (0 Bft) W 277 0 min 0 W/m 10,8 C 13,6 C 3,2 km/h (1 Bft)
23.09.2019 02:15 13,6 C 13,6 C 83 % 1018,6 hPa 0,0 l/m 0,7 km/h (0 Bft) W 277 0 min 0 W/m 10,8 C 13,6 C 1,6 km/h (1 Bft)
23.09.2019 02:10 13,6 C 13,6 C 83 % 1018,6 hPa 0,0 l/m 0,2 km/h (0 Bft) W 277 0 min 0 W/m 10,8 C 13,6 C 1,6 km/h (1 Bft)
23.09.2019 02:05 13,6 C 13,5 C 83 % 1018,4 hPa 0,0 l/m 1,9 km/h (1 Bft) W 277 0 min 0 W/m 10,8 C 13,6 C 3,2 km/h (1 Bft)
23.09.2019 02:00 13,5 C 13,5 C 83 % 1018,4 hPa 0,0 l/m 1,9 km/h (1 Bft) W 277 0 min 0 W/m 10,7 C 13,5 C 3,2 km/h (1 Bft)
23.09.2019 01:55 13,5 C 13,5 C 83 % 1018,3 hPa 0,0 l/m 2,3 km/h (1 Bft) W 277 0 min 0 W/m 10,7 C 13,5 C 3,2 km/h (1 Bft)
23.09.2019 01:50 13,5 C 13,4 C 83 % 1018,3 hPa 0,0 l/m 1,0 km/h (0 Bft) W 275 0 min 0 W/m 10,7 C 13,5 C 3,2 km/h (1 Bft)
23.09.2019 01:45 13,4 C 13,4 C 83 % 1018,2 hPa 0,0 l/m 1,3 km/h (1 Bft) W 275 0 min 0 W/m 10,6 C 13,4 C 3,2 km/h (1 Bft)
23.09.2019 01:40 13,4 C 13,3 C 83 % 1018,3 hPa 0,0 l/m 1,4 km/h (1 Bft) W 275 0 min 0 W/m 10,6 C 13,4 C 3,2 km/h (1 Bft)
23.09.2019 01:35 13,3 C 13,3 C 83 % 1018,2 hPa 0,0 l/m 1,4 km/h (1 Bft) W 277 0 min 0 W/m 10,5 C 13,3 C 3,2 km/h (1 Bft)
23.09.2019 01:30 13,3 C 13,3 C 83 % 1018,0 hPa 0,0 l/m 1,4 km/h (1 Bft) W 277 0 min 0 W/m 10,5 C 13,3 C 4,8 km/h (1 Bft)
23.09.2019 01:25 13,3 C 13,3 C 84 % 1017,9 hPa 0,0 l/m 3,1 km/h (1 Bft) N-NO 27 0 min 0 W/m 10,7 C 13,3 C 6,4 km/h (2 Bft)
23.09.2019 01:20 13,3 C 13,2 C 84 % 1017,9 hPa 0,0 l/m 2,0 km/h (1 Bft) W-NW 293 0 min 0 W/m 10,7 C 13,3 C 3,2 km/h (1 Bft)
23.09.2019 01:15 13,2 C 13,1 C 84 % 1017,7 hPa 0,0 l/m 1,7 km/h (1 Bft) W-NW 293 0 min 0 W/m 10,6 C 13,2 C 3,2 km/h (1 Bft)
23.09.2019 01:10 13,1 C 13,1 C 84 % 1017,8 hPa 0,0 l/m 1,9 km/h (1 Bft) W-NW 292 0 min 0 W/m 10,5 C 13,1 C 4,8 km/h (1 Bft)
23.09.2019 01:05 13,1 C 13,0 C 84 % 1017,7 hPa 0,0 l/m 2,1 km/h (1 Bft) W-NW 301 0 min 0 W/m 10,5 C 13,1 C 3,2 km/h (1 Bft)
23.09.2019 01:00 13,0 C 12,9 C 84 % 1017,5 hPa 0,0 l/m 3,1 km/h (1 Bft) W-NW 301 0 min 0 W/m 10,4 C 13,0 C 4,8 km/h (1 Bft)
23.09.2019 00:55 12,9 C 12,9 C 84 % 1017,4 hPa 0,0 l/m 3,2 km/h (1 Bft) N 5 0 min 0 W/m 10,3 C 12,9 C 4,8 km/h (1 Bft)
23.09.2019 00:50 12,9 C 12,9 C 84 % 1017,5 hPa 0,0 l/m 3,3 km/h (1 Bft) N-NW 339 0 min 0 W/m 10,3 C 12,9 C 4,8 km/h (1 Bft)
23.09.2019 00:45 12,9 C 12,9 C 84 % 1017,4 hPa 0,0 l/m 3,2 km/h (1 Bft) NO 51 0 min 0 W/m 10,3 C 12,9 C 4,8 km/h (1 Bft)
23.09.2019 00:40 13,0 C 13,0 C 84 % 1017,3 hPa 0,0 l/m 2,7 km/h (1 Bft) NO 55 0 min 0 W/m 10,4 C 13,0 C 4,8 km/h (1 Bft)
23.09.2019 00:35 13,1 C 13,1 C 83 % 1017,4 hPa 0,0 l/m 0,4 km/h (0 Bft) S-SW 192 0 min 0 W/m 10,3 C 13,1 C 1,6 km/h (1 Bft)
23.09.2019 00:30 13,1 C 13,1 C 83 % 1017,3 hPa 0,0 l/m 2,1 km/h (1 Bft) S-SW 193 0 min 0 W/m 10,3 C 13,1 C 4,8 km/h (1 Bft)
23.09.2019 00:25 13,2 C 13,2 C 83 % 1017,3 hPa 0,0 l/m 2,7 km/h (1 Bft) S 191 0 min 0 W/m 10,4 C 13,2 C 6,4 km/h (2 Bft)
23.09.2019 00:20 13,3 C 13,3 C 83 % 1017,3 hPa 0,0 l/m 3,6 km/h (1 Bft) S 180 0 min 0 W/m 10,5 C 13,3 C 8,0 km/h (2 Bft)
23.09.2019 00:15 13,4 C 13,4 C 82 % 1017,3 hPa 0,0 l/m 3,1 km/h (1 Bft) S 178 0 min 0 W/m 10,4 C 13,4 C 6,4 km/h (2 Bft)
23.09.2019 00:10 13,4 C 13,4 C 82 % 1017,2 hPa 0,0 l/m 2,7 km/h (1 Bft) S 174 0 min 0 W/m 10,4 C 13,4 C 6,4 km/h (2 Bft)
23.09.2019 00:05 13,6 C 13,5 C 82 % 1016,9 hPa 0,0 l/m 0,2 km/h (0 Bft) N-NO 22 0 min 0 W/m 10,6 C 13,6 C 1,6 km/h (1 Bft)
23.09.2019 00:00 13,6 C 13,6 C 82 % 1016,7 hPa 0,0 l/m 0,4 km/h (0 Bft) N-NO 22 0 min 0 W/m 10,6 C 13,6 C 1,6 km/h (1 Bft)
_ Min-Zeit 00:45 00:45 00:00 00:00 - 02:45 - - - - 00:45 00:45 08:15
Minimum _ 12,9 C 12,9 C 82 % 1016,7 hPa - 0,0 km/h (0 Bft) - - - - 10,3 C 12,9 C 0,0 km/h (0 Bft)
_ Max-Zeit 03:40 03:45 10:15 11:15 04:35 03:10 - - 00:00 00:00 03:40 03:40 03:20
Maximum _ 16,6 C 16,6 C 95 % 1023,7 hPa 0,6 l/m 8,3 km/h
SW (2 Bft)
- - 0 min 0 W/m 14,6 C 16,6 C 24,1 km/h
SW (4 Bft)
Durchschnitt _ 14,2 C 14,2 C 90 % 1020,8 hPa #14,2 l/m 3,3 km/h (1 Bft) S-SW - #0 min. 0 W/m 12,6 C 14,2 C 7,6 km/h (2 Bft)